Location: Bailleul
(50.3375°N, 2.8513°E)
Time: 16:16:13
(UTC+00:00)

Cosmos 724 - Pass Details

Date: 16 June 2021
Orbit: 850 x 945 km, 65.6° (Epoch: 30 July)

Event Time Altitude Azimuth Distance (km) Brightness Sun altitude
Rises 23:35:46 0° 320° (NW) 3,616 8.4 -16.2°
Reaches altitude 10° 23:38:20 10° 322° (NW) 2,662 7.6 -16.2°
Maximum altitude 23:44:34 78° 49° (NE) 951 4.5 -16.3°
Enters shadow 23:49:58 14° 136° (SE) 2,346 6.1 -16.3°
